Regional Weather Roundup
Issued by NWS

Home | Current Version | Previous Version | Text Only | Print | Product List | Glossary Off
Versions: 1 2 3 4 5 6 7 8 9 10 11 12 13 14 15 16 17 18 19 20 21 22 23 24 25 26 27

000
ASUS45 KCYS 151310
RWRWY

WYOMING REGIONAL WEATHER ROUNDUP
NATIONAL WEATHER SERVICE CHEYENNE WY
600 AM MST MON JAN 15 2018

NOTE:  "FAIR" INDICATES FEW OR NO CLOUDS BELOW 12,000 FEET
WITH NO SIGNIFICANT WEATHER AND/OR OBSTRUCTIONS TO VISIBILITY.

WYZ001-151400-
YELLOWSTONE NATIONAL PARK

CITY           SKY/WX    TMP DP  RH WIND       PRES   REMARKS
LK YELLOWSTONE   N/A     15  13  91 W3        30.36F
W YELLOWSTONE  NOT AVBL

$$
WYZ002>013-054>058-071-098>099-151400-
NORTHERN WYOMING

CITY           SKY/WX    TMP DP  RH WIND       PRES   REMARKS
JACKSON        FOG       10   9  92 CALM      30.37S VSB 1
CODY           CLOUDY    15  12  88 NE8       30.49R WCI   4
GREYBULL       FAIR      20  10  65 NW31G39   30.47R WCI   1
WORLAND        FAIR      19  14  81 NW14      30.48R WCI   6
SHERIDAN       FAIR      -2  -5  87 CALM      30.58R FOG
BUFFALO        LGT SNOW   5  -1  76 NE16      30.47R WCI -14
GILLETTE       FAIR     -10 -14  82 NW6       30.54R WCI -23
HULETT         FAIR      -8 -13  77 MISG      30.56R
NEWCASTLE      FAIR      -6 -13  71 NW7       30.49R WCI -20

$$
WYZ014>020-022>026-101>103-151400-
CENTRAL WYOMING

CITY           SKY/WX    TMP DP  RH WIND       PRES   REMARKS
BIG PINEY      FAIR      21  16  81 N13       30.29R WCI   9
PINEDALE       FAIR      30  21  69 NW13G28   30.28R WCI  20
DUBOIS         NOT AVBL
LANDER         CLOUDY    26  22  84 NE3       30.39R
RIVERTON       CLOUDY    24  17  74 N21       30.38R WCI   9
CASPER         CLOUDY    14   8  77 E6        30.44R WCI   5
DOUGLAS        CLOUDY    12  -1  56 N14       30.45R WCI  -3

$$
WYZ021-027>030-104>119-151400-
SOUTHERN WYOMING

CITY           SKY/WX    TMP DP  RH WIND       PRES   REMARKS
EVANSTON       FAIR      25  22  88 E3        30.32R
FORT BRIDGER   FAIR      29  23  77 W12       30.33S WCI  20
ROCK SPRINGS   FAIR      21  18  88 E9        30.33R WCI  11
DIXON            N/A     18  15  87 N3        30.32R
RAWLINS        CLOUDY    25  20  81 N6        30.30R WCI  18
SARATOGA       CLOUDY    27  23  86 N8        30.30R WCI  18
LARAMIE        FLURRIES  21  19  92 N13       30.25R WCI   9
CHEYENNE       LGT SNOW  15  12  88 N15       30.31R FOG     WCI   0
TORRINGTON     CLOUDY    15   1  53 N13G22    30.44R WCI   1

$$




USA.gov is the U.S. government's official web portal to all federal, state and local government web resources and services.